owner,sensor,date,latitude,longitude,vertical_datum,mass_concentration_of_oxygen_in_sea_water,qcFlag 
DISL,ioos:station:DISL:MBLA:1,2014-05-01T00:02:00Z,30.4367,-88.0117,3.075,7.96,1111122 
DISL,ioos:station:DISL:MBLA:1,2014-05-01T00:05:00Z,30.4367,-88.0117,2.523,8.13,1111122 
DISL,ioos:station:DISL:MBLA:1,2014-05-01T00:08:00Z,30.4367,-88.0117,1.981,7.96,1111122 
DISL,ioos:station:DISL:MBLA:1,2014-05-01T00:10:00Z,30.4367,-88.0117,1.457,7.91,1111122 
DISL,ioos:station:DISL:MBLA:1,2014-05-01T00:12:00Z,30.4367,-88.0117,1.0,7.77,1111122 
DISL,ioos:station:DISL:MBLA:1,2014-05-01T00:15:00Z,30.4367,-88.0117,0.504,7.91,1111122 
DISL,ioos:station:DISL:MBLA:1,2014-05-01T01:02:00Z,30.4367,-88.0117,3.067,8.0,1111122 
DISL,ioos:station:DISL:MBLA:1,2014-05-01T01:05:00Z,30.4367,-88.0117,2.431,7.99,1111122 
DISL,ioos:station:DISL:MBLA:1,2014-05-01T01:07:00Z,30.4367,-88.0117,1.973,7.92,1111122 
DISL,ioos:station:DISL:MBLA:1,2014-05-01T01:10:00Z,30.4367,-88.0117,1.515,7.86,1111122 
DISL,ioos:station:DISL:MBLA:1,2014-05-01T01:12:00Z,30.4367,-88.0117,1.024,7.79,1111122 
DISL,ioos:station:DISL:MBLA:1,2014-05-01T01:15:00Z,30.4367,-88.0117,0.49,7.77,1111122 
DISL,ioos:station:DISL:MBLA:1,2014-05-01T02:02:00Z,30.4367,-88.0117,3.019,8.01,1111122 
DISL,ioos:station:DISL:MBLA:1,2014-05-01T02:05:00Z,30.4367,-88.0117,2.517,7.95,1111122 
DISL,ioos:station:DISL:MBLA:1,2014-05-01T02:07:00Z,30.4367,-88.0117,1.907,7.93,1111122 
DISL,ioos:station:DISL:MBLA:1,2014-05-01T02:10:00Z,30.4367,-88.0117,1.446,7.85,1111122 
DISL,ioos:station:DISL:MBLA:1,2014-05-01T02:12:00Z,30.4367,-88.0117,0.951,7.85,1111122 
DISL,ioos:station:DISL:MBLA:1,2014-05-01T02:15:00Z,30.4367,-88.0117,0.467,7.85,1111122 
DISL,ioos:station:DISL:MBLA:1,2014-05-01T03:02:00Z,30.4367,-88.0117,3.049,8.03,1111122 
DISL,ioos:station:DISL:MBLA:1,2014-05-01T03:08:00Z,30.4367,-88.0117,1.977,8.01,1111122 
DISL,ioos:station:DISL:MBLA:1,2014-05-01T03:10:00Z,30.4367,-88.0117,1.453,7.93,1111122 
DISL,ioos:station:DISL:MBLA:1,2014-05-01T03:13:00Z,30.4367,-88.0117,0.749,7.9,1111122 
DISL,ioos:station:DISL:MBLA:1,2014-05-01T03:15:00Z,30.4367,-88.0117,0.597,7.89,1111122 
DISL,ioos:station:DISL:MBLA:1,2014-05-01T04:02:00Z,30.4367,-88.0117,3.044,7.89,1111122 
DISL,ioos:station:DISL:MBLA:1,2014-05-01T04:05:00Z,30.4367,-88.0117,2.412,8.07,1111122 
DISL,ioos:station:DISL:MBLA:1,2014-05-01T04:07:00Z,30.4367,-88.0117,1.955,7.87,1111122 
DISL,ioos:station:DISL:MBLA:1,2014-05-01T04:10:00Z,30.4367,-88.0117,1.521,7.78,1111122 
DISL,ioos:station:DISL:MBLA:1,2014-05-01T04:12:00Z,30.4367,-88.0117,1.011,7.81,1111122 
DISL,ioos:station:DISL:MBLA:1,2014-05-01T04:15:00Z,30.4367,-88.0117,0.582,7.83,1111122 
DISL,ioos:station:DISL:MBLA:1,2014-05-01T05:03:00Z,30.4367,-88.0117,3.019,8.0,1111122 
DISL,ioos:station:DISL:MBLA:1,2014-05-01T05:05:00Z,30.4367,-88.0117,2.467,7.97,1111122 
DISL,ioos:station:DISL:MBLA:1,2014-05-01T05:07:00Z,30.4367,-88.0117,2.008,7.96,1111122 
DISL,ioos:station:DISL:MBLA:1,2014-05-01T05:10:00Z,30.4367,-88.0117,1.515,7.87,1111122 
DISL,ioos:station:DISL:MBLA:1,2014-05-01T05:12:00Z,30.4367,-88.0117,1.068,7.98,1111122 
DISL,ioos:station:DISL:MBLA:1,2014-05-01T05:15:00Z,30.4367,-88.0117,0.571,7.96,1111122 
DISL,ioos:station:DISL:MBLA:1,2014-05-01T06:03:00Z,30.4367,-88.0117,2.965,7.94,1111122 
DISL,ioos:station:DISL:MBLA:1,2014-05-01T06:05:00Z,30.4367,-88.0117,2.474,7.97,1111122 
DISL,ioos:station:DISL:MBLA:1,2014-05-01T06:08:00Z,30.4367,-88.0117,1.929,7.89,1111122 
DISL,ioos:station:DISL:MBLA:1,2014-05-01T06:10:00Z,30.4367,-88.0117,1.518,7.94,1111122 
DISL,ioos:station:DISL:MBLA:1,2014-05-01T06:13:00Z,30.4367,-88.0117,0.801,7.94,1111122 
DISL,ioos:station:DISL:MBLA:1,2014-05-01T06:15:00Z,30.4367,-88.0117,0.425,7.98,1111122 
DISL,ioos:station:DISL:MBLA:1,2014-05-01T07:02:00Z,30.4367,-88.0117,2.984,8.09,1111122 
DISL,ioos:station:DISL:MBLA:1,2014-05-01T07:07:00Z,30.4367,-88.0117,1.973,8.01,1111122 
DISL,ioos:station:DISL:MBLA:1,2014-05-01T07:10:00Z,30.4367,-88.0117,1.541,7.97,1111122 
DISL,ioos:station:DISL:MBLA:1,2014-05-01T07:13:00Z,30.4367,-88.0117,0.994,8.03,1111122 
DISL,ioos:station:DISL:MBLA:1,2014-05-01T07:15:00Z,30.4367,-88.0117,0.392,8.01,1111122 
DISL,ioos:station:DISL:MBLA:1,2014-05-01T08:02:00Z,30.4367,-88.0117,3.044,8.06,1111122 
DISL,ioos:station:DISL:MBLA:1,2014-05-01T08:05:00Z,30.4367,-88.0117,2.344,8.11,1111122 
DISL,ioos:station:DISL:MBLA:1,2014-05-01T08:08:00Z,30.4367,-88.0117,2.071,8.1,1111122 
DISL,ioos:station:DISL:MBLA:1,2014-05-01T08:10:00Z,30.4367,-88.0117,1.51,8.06,1111122 
DISL,ioos:station:DISL:MBLA:1,2014-05-01T08:17:00Z,30.4367,-88.0117,0.289,8.03,1111122 
DISL,ioos:station:DISL:MBLA:1,2014-05-01T09:02:00Z,30.4367,-88.0117,3.08,8.01,1111122 
DISL,ioos:station:DISL:MBLA:1,2014-05-01T09:05:00Z,30.4367,-88.0117,2.477,8.05,1111122 
DISL,ioos:station:DISL:MBLA:1,2014-05-01T09:08:00Z,30.4367,-88.0117,1.912,8.01,1111122 
DISL,ioos:station:DISL:MBLA:1,2014-05-01T09:10:00Z,30.4367,-88.0117,1.599,8.02,1111122 
DISL,ioos:station:DISL:MBLA:1,2014-05-01T09:13:00Z,30.4367,-88.0117,0.892,7.98,1111122 
DISL,ioos:station:DISL:MBLA:1,2014-05-01T09:15:00Z,30.4367,-88.0117,0.419,8.02,1111122 
DISL,ioos:station:DISL:MBLA:1,2014-05-01T10:02:00Z,30.4367,-88.0117,3.003,7.99,1111122 
DISL,ioos:station:DISL:MBLA:1,2014-05-01T10:05:00Z,30.4367,-88.0117,2.475,8.02,1111122 
DISL,ioos:station:DISL:MBLA:1,2014-05-01T10:07:00Z,30.4367,-88.0117,2.013,8.01,1111122 
DISL,ioos:station:DISL:MBLA:1,2014-05-01T10:10:00Z,30.4367,-88.0117,1.573,7.96,1111122 
DISL,ioos:station:DISL:MBLA:1,2014-05-01T10:13:00Z,30.4367,-88.0117,0.913,7.97,1111122 
DISL,ioos:station:DISL:MBLA:1,2014-05-01T10:16:00Z,30.4367,-88.0117,0.519,8.0,1111122 
DISL,ioos:station:DISL:MBLA:1,2014-05-01T11:02:00Z,30.4367,-88.0117,2.938,7.94,1111122 
DISL,ioos:station:DISL:MBLA:1,2014-05-01T11:05:00Z,30.4367,-88.0117,2.403,7.91,1111122 
DISL,ioos:station:DISL:MBLA:1,2014-05-01T11:07:00Z,30.4367,-88.0117,1.926,7.92,1111122 
DISL,ioos:station:DISL:MBLA:1,2014-05-01T11:10:00Z,30.4367,-88.0117,1.222,7.94,1111122 
DISL,ioos:station:DISL:MBLA:1,2014-05-01T11:12:00Z,30.4367,-88.0117,0.923,7.94,1111122 
DISL,ioos:station:DISL:MBLA:1,2014-05-01T11:15:00Z,30.4367,-88.0117,0.694,7.93,1111122 
DISL,ioos:station:DISL:MBLA:1,2014-05-01T12:02:00Z,30.4367,-88.0117,2.959,7.94,1111122 
DISL,ioos:station:DISL:MBLA:1,2014-05-01T12:05:00Z,30.4367,-88.0117,2.48,7.94,1111122 
DISL,ioos:station:DISL:MBLA:1,2014-05-01T12:08:00Z,30.4367,-88.0117,1.921,7.91,1111122 
DISL,ioos:station:DISL:MBLA:1,2014-05-01T12:10:00Z,30.4367,-88.0117,1.188,7.88,1111122 
DISL,ioos:station:DISL:MBLA:1,2014-05-01T12:13:00Z,30.4367,-88.0117,1.079,7.88,1111122 
DISL,ioos:station:DISL:MBLA:1,2014-05-01T12:15:00Z,30.4367,-88.0117,0.497,7.93,1111122 
DISL,ioos:station:DISL:MBLA:1,2014-05-01T13:02:00Z,30.4367,-88.0117,2.955,7.89,1111122 
DISL,ioos:station:DISL:MBLA:1,2014-05-01T13:05:00Z,30.4367,-88.0117,2.653,7.89,1111122 
DISL,ioos:station:DISL:MBLA:1,2014-05-01T13:07:00Z,30.4367,-88.0117,2.004,7.92,1111122 
DISL,ioos:station:DISL:MBLA:1,2014-05-01T13:10:00Z,30.4367,-88.0117,1.729,7.93,1111122 
DISL,ioos:station:DISL:MBLA:1,2014-05-01T13:12:00Z,30.4367,-88.0117,1.025,7.93,1111122 
DISL,ioos:station:DISL:MBLA:1,2014-05-01T13:15:00Z,30.4367,-88.0117,0.553,7.95,1111122 
DISL,ioos:station:DISL:MBLA:1,2014-05-01T14:02:00Z,30.4367,-88.0117,2.994,7.92,1111122 
DISL,ioos:station:DISL:MBLA:1,2014-05-01T14:08:00Z,30.4367,-88.0117,1.99,8.06,1111122 
DISL,ioos:station:DISL:MBLA:1,2014-05-01T14:11:00Z,30.4367,-88.0117,1.4,8.05,1111122 
DISL,ioos:station:DISL:MBLA:1,2014-05-01T14:14:00Z,30.4367,-88.0117,0.857,7.95,1111122 
DISL,ioos:station:DISL:MBLA:1,2014-05-01T14:16:00Z,30.4367,-88.0117,0.616,8.01,1111122 
DISL,ioos:station:DISL:MBLA:1,2014-05-01T15:02:00Z,30.4367,-88.0117,3.102,8.03,1111122 
DISL,ioos:station:DISL:MBLA:1,2014-05-01T15:05:00Z,30.4367,-88.0117,2.613,8.07,1111122 
DISL,ioos:station:DISL:MBLA:1,2014-05-01T15:08:00Z,30.4367,-88.0117,1.968,8.1,1111122 
DISL,ioos:station:DISL:MBLA:1,2014-05-01T15:10:00Z,30.4367,-88.0117,1.528,8.05,1111122 
DISL,ioos:station:DISL:MBLA:1,2014-05-01T15:12:00Z,30.4367,-88.0117,1.041,8.03,1111122 
DISL,ioos:station:DISL:MBLA:1,2014-05-01T15:15:00Z,30.4367,-88.0117,0.694,8.07,1111122 
DISL,ioos:station:DISL:MBLA:1,2014-05-01T16:02:00Z,30.4367,-88.0117,3.059,8.0,1111122 
DISL,ioos:station:DISL:MBLA:1,2014-05-01T16:05:00Z,30.4367,-88.0117,2.488,7.99,1111122 
DISL,ioos:station:DISL:MBLA:1,2014-05-01T16:07:00Z,30.4367,-88.0117,1.99,8.13,1111122 
DISL,ioos:station:DISL:MBLA:1,2014-05-01T16:10:00Z,30.4367,-88.0117,1.493,8.15,1111122 
DISL,ioos:station:DISL:MBLA:1,2014-05-01T16:12:00Z,30.4367,-88.0117,1.023,8.1,1111122 
DISL,ioos:station:DISL:MBLA:1,2014-05-01T16:15:00Z,30.4367,-88.0117,0.34,8.13,1111122 
DISL,ioos:station:DISL:MBLA:1,2014-05-01T17:03:00Z,30.4367,-88.0117,2.944,7.89,1111122 
DISL,ioos:station:DISL:MBLA:1,2014-05-01T17:08:00Z,30.4367,-88.0117,1.985,8.1,1111122 
DISL,ioos:station:DISL:MBLA:1,2014-05-01T17:10:00Z,30.4367,-88.0117,1.46,8.16,1111122 
DISL,ioos:station:DISL:MBLA:1,2014-05-01T17:12:00Z,30.4367,-88.0117,0.882,8.1,1111122 
DISL,ioos:station:DISL:MBLA:1,2014-05-01T17:15:00Z,30.4367,-88.0117,0.449,8.14,1111122 
DISL,ioos:station:DISL:MBLA:1,2014-05-01T18:02:00Z,30.4367,-88.0117,3.032,7.86,1111122 
DISL,ioos:station:DISL:MBLA:1,2014-05-01T18:05:00Z,30.4367,-88.0117,2.456,7.97,1111122 
DISL,ioos:station:DISL:MBLA:1,2014-05-01T18:07:00Z,30.4367,-88.0117,2.069,8.02,1111122 
DISL,ioos:station:DISL:MBLA:1,2014-05-01T18:10:00Z,30.4367,-88.0117,1.471,8.0,1111122 
DISL,ioos:station:DISL:MBLA:1,2014-05-01T18:12:00Z,30.4367,-88.0117,0.901,7.85,1111122 
DISL,ioos:station:DISL:MBLA:1,2014-05-01T18:15:00Z,30.4367,-88.0117,0.608,8.0,1111122 
DISL,ioos:station:DISL:MBLA:1,2014-05-01T19:02:00Z,30.4367,-88.0117,3.06,7.85,1111122 
DISL,ioos:station:DISL:MBLA:1,2014-05-01T19:05:00Z,30.4367,-88.0117,2.409,7.84,1111122 
DISL,ioos:station:DISL:MBLA:1,2014-05-01T19:07:00Z,30.4367,-88.0117,1.939,7.82,1111122 
DISL,ioos:station:DISL:MBLA:1,2014-05-01T19:10:00Z,30.4367,-88.0117,1.462,8.01,1111122 
DISL,ioos:station:DISL:MBLA:1,2014-05-01T19:12:00Z,30.4367,-88.0117,0.897,7.83,1111122 
DISL,ioos:station:DISL:MBLA:1,2014-05-01T19:15:00Z,30.4367,-88.0117,0.42,8.04,1111122 
DISL,ioos:station:DISL:MBLA:1,2014-05-01T20:03:00Z,30.4367,-88.0117,3.012,7.8,1111122 
DISL,ioos:station:DISL:MBLA:1,2014-05-01T20:05:00Z,30.4367,-88.0117,2.425,7.93,1111122 
DISL,ioos:station:DISL:MBLA:1,2014-05-01T20:07:00Z,30.4367,-88.0117,1.948,7.87,1111122 
DISL,ioos:station:DISL:MBLA:1,2014-05-01T20:10:00Z,30.4367,-88.0117,1.469,7.88,1111122 
DISL,ioos:station:DISL:MBLA:1,2014-05-01T20:12:00Z,30.4367,-88.0117,0.925,7.73,1111122 
DISL,ioos:station:DISL:MBLA:1,2014-05-01T20:15:00Z,30.4367,-88.0117,0.588,7.69,1111122 
DISL,ioos:station:DISL:MBLA:1,2014-05-01T21:03:00Z,30.4367,-88.0117,3.026,7.83,1111122 
DISL,ioos:station:DISL:MBLA:1,2014-05-01T21:05:00Z,30.4367,-88.0117,2.437,7.94,1111122 
DISL,ioos:station:DISL:MBLA:1,2014-05-01T21:07:00Z,30.4367,-88.0117,1.969,7.77,1111122 
DISL,ioos:station:DISL:MBLA:1,2014-05-01T21:10:00Z,30.4367,-88.0117,1.427,7.84,1111122 
DISL,ioos:station:DISL:MBLA:1,2014-05-01T21:12:00Z,30.4367,-88.0117,0.946,7.65,1111122 
DISL,ioos:station:DISL:MBLA:1,2014-05-01T21:15:00Z,30.4367,-88.0117,0.445,7.78,1111122 
DISL,ioos:station:DISL:MBLA:1,2014-05-01T22:03:00Z,30.4367,-88.0117,2.941,7.72,1111122 
DISL,ioos:station:DISL:MBLA:1,2014-05-01T22:05:00Z,30.4367,-88.0117,2.421,7.78,1111122 
DISL,ioos:station:DISL:MBLA:1,2014-05-01T22:07:00Z,30.4367,-88.0117,1.946,7.76,1111122 
DISL,ioos:station:DISL:MBLA:1,2014-05-01T22:10:00Z,30.4367,-88.0117,1.461,7.97,1111122 
DISL,ioos:station:DISL:MBLA:1,2014-05-01T22:12:00Z,30.4367,-88.0117,0.963,7.88,1111122 
DISL,ioos:station:DISL:MBLA:1,2014-05-01T22:15:00Z,30.4367,-88.0117,0.571,7.9,1111122 
DISL,ioos:station:DISL:MBLA:1,2014-05-01T23:03:00Z,30.4367,-88.0117,2.956,7.86,1111122 
DISL,ioos:station:DISL:MBLA:1,2014-05-01T23:05:00Z,30.4367,-88.0117,2.541,8.13,1111122 
DISL,ioos:station:DISL:MBLA:1,2014-05-01T23:08:00Z,30.4367,-88.0117,1.921,7.98,1111122 
DISL,ioos:station:DISL:MBLA:1,2014-05-01T23:10:00Z,30.4367,-88.0117,1.445,8.03,1111122 
DISL,ioos:station:DISL:MBLA:1,2014-05-01T23:13:00Z,30.4367,-88.0117,0.976,7.9,1111122 
DISL,ioos:station:DISL:MBLA:1,2014-05-01T23:15:00Z,30.4367,-88.0117,0.423,8.01,1111122 
DISL,ioos:station:DISL:MBLA:1,2014-05-02T00:02:00Z,30.4367,-88.0117,3.076,8.12,1111122 
DISL,ioos:station:DISL:MBLA:1,2014-05-02T00:05:00Z,30.4367,-88.0117,2.434,8.14,1111122 
DISL,ioos:station:DISL:MBLA:1,2014-05-02T00:07:00Z,30.4367,-88.0117,2.027,8.09,1111122 
DISL,ioos:station:DISL:MBLA:1,2014-05-02T00:10:00Z,30.4367,-88.0117,1.51,8.12,1111122 
DISL,ioos:station:DISL:MBLA:1,2014-05-02T00:12:00Z,30.4367,-88.0117,0.928,8.0,1111122 
DISL,ioos:station:DISL:MBLA:1,2014-05-02T00:15:00Z,30.4367,-88.0117,0.471,8.0,1111122 
DISL,ioos:station:DISL:MBLA:1,2014-05-02T01:02:00Z,30.4367,-88.0117,3.021,8.02,1111122 
DISL,ioos:station:DISL:MBLA:1,2014-05-02T01:05:00Z,30.4367,-88.0117,2.405,8.15,1111122 
DISL,ioos:station:DISL:MBLA:1,2014-05-02T01:07:00Z,30.4367,-88.0117,1.912,8.06,1111122 
DISL,ioos:station:DISL:MBLA:1,2014-05-02T01:10:00Z,30.4367,-88.0117,1.458,8.07,1111122 
DISL,ioos:station:DISL:MBLA:1,2014-05-02T01:12:00Z,30.4367,-88.0117,0.954,8.21,1111122 
DISL,ioos:station:DISL:MBLA:1,2014-05-02T01:15:00Z,30.4367,-88.0117,0.452,8.33,1111122 
DISL,ioos:station:DISL:MBLA:1,2014-05-02T02:02:00Z,30.4367,-88.0117,3.025,7.95,1111122 
DISL,ioos:station:DISL:MBLA:1,2014-05-02T02:05:00Z,30.4367,-88.0117,2.469,8.04,1111122 
DISL,ioos:station:DISL:MBLA:1,2014-05-02T02:07:00Z,30.4367,-88.0117,1.924,8.1,1111122 
DISL,ioos:station:DISL:MBLA:1,2014-05-02T02:10:00Z,30.4367,-88.0117,1.45,8.24,1111122 
DISL,ioos:station:DISL:MBLA:1,2014-05-02T02:12:00Z,30.4367,-88.0117,1.014,8.33,1111122 
DISL,ioos:station:DISL:MBLA:1,2014-05-02T02:15:00Z,30.4367,-88.0117,0.427,8.43,1111122 
DISL,ioos:station:DISL:MBLA:1,2014-05-02T03:02:00Z,30.4367,-88.0117,3.023,8.13,1111122 
DISL,ioos:station:DISL:MBLA:1,2014-05-02T03:07:00Z,30.4367,-88.0117,1.922,8.38,1111122 
DISL,ioos:station:DISL:MBLA:1,2014-05-02T03:10:00Z,30.4367,-88.0117,1.458,8.26,1111122 
DISL,ioos:station:DISL:MBLA:1,2014-05-02T03:12:00Z,30.4367,-88.0117,1.03,8.32,1111122 
DISL,ioos:station:DISL:MBLA:1,2014-05-02T03:15:00Z,30.4367,-88.0117,0.521,8.36,1111122 
DISL,ioos:station:DISL:MBLA:1,2014-05-02T04:02:00Z,30.4367,-88.0117,3.053,8.08,1111122 
DISL,ioos:station:DISL:MBLA:1,2014-05-02T04:05:00Z,30.4367,-88.0117,2.441,8.24,1111122 
DISL,ioos:station:DISL:MBLA:1,2014-05-02T04:07:00Z,30.4367,-88.0117,1.964,8.21,1111122 
DISL,ioos:station:DISL:MBLA:1,2014-05-02T04:10:00Z,30.4367,-88.0117,1.541,8.13,1111122 
DISL,ioos:station:DISL:MBLA:1,2014-05-02T04:12:00Z,30.4367,-88.0117,0.977,8.18,1111122 
DISL,ioos:station:DISL:MBLA:1,2014-05-02T04:15:00Z,30.4367,-88.0117,0.537,8.1,1111122 
DISL,ioos:station:DISL:MBLA:1,2014-05-02T05:02:00Z,30.4367,-88.0117,3.024,7.9,1111122 
DISL,ioos:station:DISL:MBLA:1,2014-05-02T05:05:00Z,30.4367,-88.0117,2.404,8.03,1111122 
DISL,ioos:station:DISL:MBLA:1,2014-05-02T05:07:00Z,30.4367,-88.0117,1.93,7.97,1111122 
DISL,ioos:station:DISL:MBLA:1,2014-05-02T05:10:00Z,30.4367,-88.0117,1.464,8.06,1111122 
DISL,ioos:station:DISL:MBLA:1,2014-05-02T05:12:00Z,30.4367,-88.0117,0.962,7.89,1111122 
DISL,ioos:station:DISL:MBLA:1,2014-05-02T05:15:00Z,30.4367,-88.0117,0.463,7.77,1111122 
DISL,ioos:station:DISL:MBLA:1,2014-05-02T06:02:00Z,30.4367,-88.0117,3.064,7.89,1111122 
DISL,ioos:station:DISL:MBLA:1,2014-05-02T06:05:00Z,30.4367,-88.0117,2.448,7.95,1111122 
DISL,ioos:station:DISL:MBLA:1,2014-05-02T06:07:00Z,30.4367,-88.0117,1.973,7.88,1111122 
DISL,ioos:station:DISL:MBLA:1,2014-05-02T06:10:00Z,30.4367,-88.0117,0.0,7.77,1111122 
DISL,ioos:station:DISL:MBLA:1,2014-05-02T06:12:00Z,30.4367,-88.0117,0.986,7.66,1111122 
DISL,ioos:station:DISL:MBLA:1,2014-05-02T06:15:00Z,30.4367,-88.0117,0.482,7.57,1111122 
DISL,ioos:station:DISL:MBLA:1,2014-05-02T07:02:00Z,30.4367,-88.0117,3.007,7.78,1111122 
DISL,ioos:station:DISL:MBLA:1,2014-05-02T07:07:00Z,30.4367,-88.0117,1.987,7.78,1111122 
DISL,ioos:station:DISL:MBLA:1,2014-05-02T07:10:00Z,30.4367,-88.0117,1.502,7.73,1111122 
DISL,ioos:station:DISL:MBLA:1,2014-05-02T07:12:00Z,30.4367,-88.0117,1.01,7.66,1111122 
DISL,ioos:station:DISL:MBLA:1,2014-05-02T07:15:00Z,30.4367,-88.0117,0.514,7.56,1111122 
DISL,ioos:station:DISL:MBLA:1,2014-05-02T08:02:00Z,30.4367,-88.0117,3.041,7.59,1111122 
DISL,ioos:station:DISL:MBLA:1,2014-05-02T08:05:00Z,30.4367,-88.0117,2.43,7.74,1111122 
DISL,ioos:station:DISL:MBLA:1,2014-05-02T08:07:00Z,30.4367,-88.0117,1.957,7.61,1111122 
DISL,ioos:station:DISL:MBLA:1,2014-05-02T08:10:00Z,30.4367,-88.0117,1.49,7.45,1111122 
DISL,ioos:station:DISL:MBLA:1,2014-05-02T08:12:00Z,30.4367,-88.0117,0.99,7.35,1111122 
DISL,ioos:station:DISL:MBLA:1,2014-05-02T08:15:00Z,30.4367,-88.0117,0.491,7.69,1111122 
DISL,ioos:station:DISL:MBLA:1,2014-05-02T09:02:00Z,30.4367,-88.0117,3.041,7.31,1111122 
DISL,ioos:station:DISL:MBLA:1,2014-05-02T09:05:00Z,30.4367,-88.0117,2.433,7.18,1111122 
DISL,ioos:station:DISL:MBLA:1,2014-05-02T09:07:00Z,30.4367,-88.0117,1.961,7.19,1111122 
DISL,ioos:station:DISL:MBLA:1,2014-05-02T09:10:00Z,30.4367,-88.0117,1.506,7.11,1111122 
DISL,ioos:station:DISL:MBLA:1,2014-05-02T09:12:00Z,30.4367,-88.0117,1.006,7.09,1111122 
DISL,ioos:station:DISL:MBLA:1,2014-05-02T09:15:00Z,30.4367,-88.0117,0.516,7.35,1111122 
DISL,ioos:station:DISL:MBLA:1,2014-05-02T10:02:00Z,30.4367,-88.0117,3.007,6.95,1111122 
DISL,ioos:station:DISL:MBLA:1,2014-05-02T10:05:00Z,30.4367,-88.0117,2.466,6.91,1111122 
DISL,ioos:station:DISL:MBLA:1,2014-05-02T10:07:00Z,30.4367,-88.0117,1.94,7.07,1111122 
DISL,ioos:station:DISL:MBLA:1,2014-05-02T10:10:00Z,30.4367,-88.0117,1.483,6.94,1111122 
DISL,ioos:station:DISL:MBLA:1,2014-05-02T10:12:00Z,30.4367,-88.0117,0.994,6.96,1111122 
DISL,ioos:station:DISL:MBLA:1,2014-05-02T10:15:00Z,30.4367,-88.0117,0.505,7.03,1111122 
DISL,ioos:station:DISL:MBLA:1,2014-05-02T11:02:00Z,30.4367,-88.0117,3.008,7.34,1111122 
DISL,ioos:station:DISL:MBLA:1,2014-05-02T11:05:00Z,30.4367,-88.0117,2.474,7.29,1111122 
DISL,ioos:station:DISL:MBLA:1,2014-05-02T11:07:00Z,30.4367,-88.0117,1.938,7.57,1111122 
DISL,ioos:station:DISL:MBLA:1,2014-05-02T11:10:00Z,30.4367,-88.0117,1.491,7.44,1111122 
DISL,ioos:station:DISL:MBLA:1,2014-05-02T11:12:00Z,30.4367,-88.0117,1.001,7.43,1111122 
DISL,ioos:station:DISL:MBLA:1,2014-05-02T11:15:00Z,30.4367,-88.0117,0.503,7.57,1111122 
DISL,ioos:station:DISL:MBLA:1,2014-05-02T12:02:00Z,30.4367,-88.0117,3.059,7.59,1111122 
DISL,ioos:station:DISL:MBLA:1,2014-05-02T12:05:00Z,30.4367,-88.0117,2.445,7.69,1111122 
DISL,ioos:station:DISL:MBLA:1,2014-05-02T12:07:00Z,30.4367,-88.0117,1.974,7.73,1111122 
DISL,ioos:station:DISL:MBLA:1,2014-05-02T12:10:00Z,30.4367,-88.0117,1.468,7.62,1111122 
DISL,ioos:station:DISL:MBLA:1,2014-05-02T12:12:00Z,30.4367,-88.0117,1.037,7.41,1111122 
DISL,ioos:station:DISL:MBLA:1,2014-05-02T12:15:00Z,30.4367,-88.0117,0.47,7.54,1111122 
DISL,ioos:station:DISL:MBLA:1,2014-05-02T13:02:00Z,30.4367,-88.0117,3.039,7.39,1111122 
DISL,ioos:station:DISL:MBLA:1,2014-05-02T13:05:00Z,30.4367,-88.0117,2.475,7.56,1111122 
DISL,ioos:station:DISL:MBLA:1,2014-05-02T13:07:00Z,30.4367,-88.0117,1.975,7.77,1111122 
DISL,ioos:station:DISL:MBLA:1,2014-05-02T13:10:00Z,30.4367,-88.0117,1.442,7.75,1111122 
DISL,ioos:station:DISL:MBLA:1,2014-05-02T13:12:00Z,30.4367,-88.0117,0.984,7.58,1111122 
DISL,ioos:station:DISL:MBLA:1,2014-05-02T13:15:00Z,30.4367,-88.0117,0.525,7.64,1111122 
DISL,ioos:station:DISL:MBLA:1,2014-05-02T14:02:00Z,30.4367,-88.0117,3.082,7.54,1111122 
DISL,ioos:station:DISL:MBLA:1,2014-05-02T14:05:00Z,30.4367,-88.0117,2.421,7.64,1111122 
DISL,ioos:station:DISL:MBLA:1,2014-05-02T14:07:00Z,30.4367,-88.0117,1.915,7.58,1111122 
DISL,ioos:station:DISL:MBLA:1,2014-05-02T14:10:00Z,30.4367,-88.0117,1.445,7.96,1111122 
DISL,ioos:station:DISL:MBLA:1,2014-05-02T14:12:00Z,30.4367,-88.0117,0.979,7.86,1111122 
DISL,ioos:station:DISL:MBLA:1,2014-05-02T14:15:00Z,30.4367,-88.0117,0.439,7.91,1111122 
DISL,ioos:station:DISL:MBLA:1,2014-05-02T15:02:00Z,30.4367,-88.0117,3.067,7.47,1111122 
DISL,ioos:station:DISL:MBLA:1,2014-05-02T15:05:00Z,30.4367,-88.0117,2.566,7.65,1111122 
DISL,ioos:station:DISL:MBLA:1,2014-05-02T15:08:00Z,30.4367,-88.0117,1.942,7.54,1111122 
DISL,ioos:station:DISL:MBLA:1,2014-05-02T15:10:00Z,30.4367,-88.0117,1.463,7.9,1111122 
DISL,ioos:station:DISL:MBLA:1,2014-05-02T15:12:00Z,30.4367,-88.0117,0.973,7.61,1111122 
DISL,ioos:station:DISL:MBLA:1,2014-05-02T15:15:00Z,30.4367,-88.0117,0.571,7.97,1111122 
DISL,ioos:station:DISL:MBLA:1,2014-05-02T16:03:00Z,30.4367,-88.0117,2.983,7.59,1111122 
DISL,ioos:station:DISL:MBLA:1,2014-05-02T16:05:00Z,30.4367,-88.0117,2.396,7.62,1111122 
DISL,ioos:station:DISL:MBLA:1,2014-05-02T16:07:00Z,30.4367,-88.0117,1.901,7.55,1111122 
DISL,ioos:station:DISL:MBLA:1,2014-05-02T16:10:00Z,30.4367,-88.0117,1.405,7.59,1111122 
DISL,ioos:station:DISL:MBLA:1,2014-05-02T16:12:00Z,30.4367,-88.0117,0.911,7.46,1111122 
DISL,ioos:station:DISL:MBLA:1,2014-05-02T16:15:00Z,30.4367,-88.0117,0.574,7.9,1111122 
DISL,ioos:station:DISL:MBLA:1,2014-05-02T17:02:00Z,30.4367,-88.0117,3.088,7.46,1111122 
DISL,ioos:station:DISL:MBLA:1,2014-05-02T17:07:00Z,30.4367,-88.0117,1.919,7.39,1111122 
DISL,ioos:station:DISL:MBLA:1,2014-05-02T17:10:00Z,30.4367,-88.0117,1.416,7.32,1111122 
DISL,ioos:station:DISL:MBLA:1,2014-05-02T17:12:00Z,30.4367,-88.0117,0.988,7.07,1111122 
DISL,ioos:station:DISL:MBLA:1,2014-05-02T17:15:00Z,30.4367,-88.0117,0.565,7.47,1111122 
DISL,ioos:station:DISL:MBLA:1,2014-05-02T18:02:00Z,30.4367,-88.0117,3.096,7.14,1111122 
DISL,ioos:station:DISL:MBLA:1,2014-05-02T18:05:00Z,30.4367,-88.0117,2.593,6.98,1111122 
DISL,ioos:station:DISL:MBLA:1,2014-05-02T18:08:00Z,30.4367,-88.0117,1.946,6.95,1111122 
DISL,ioos:station:DISL:MBLA:1,2014-05-02T18:10:00Z,30.4367,-88.0117,1.447,6.84,1111122 
DISL,ioos:station:DISL:MBLA:1,2014-05-02T18:13:00Z,30.4367,-88.0117,0.896,6.81,1111122 
DISL,ioos:station:DISL:MBLA:1,2014-05-02T18:15:00Z,30.4367,-88.0117,0.669,7.58,1111122 
DISL,ioos:station:DISL:MBLA:1,2014-05-02T19:02:00Z,30.4367,-88.0117,3.086,7.52,1111122 
DISL,ioos:station:DISL:MBLA:1,2014-05-02T19:05:00Z,30.4367,-88.0117,2.406,7.48,1111122 
DISL,ioos:station:DISL:MBLA:1,2014-05-02T19:07:00Z,30.4367,-88.0117,1.908,7.31,1111122 
DISL,ioos:station:DISL:MBLA:1,2014-05-02T19:10:00Z,30.4367,-88.0117,1.401,7.61,1111122 
DISL,ioos:station:DISL:MBLA:1,2014-05-02T19:12:00Z,30.4367,-88.0117,0.899,7.46,1111122 
DISL,ioos:station:DISL:MBLA:1,2014-05-02T19:15:00Z,30.4367,-88.0117,0.545,7.62,1111122 
DISL,ioos:station:DISL:MBLA:1,2014-05-02T20:03:00Z,30.4367,-88.0117,3.063,7.76,1111122 
DISL,ioos:station:DISL:MBLA:1,2014-05-02T20:05:00Z,30.4367,-88.0117,2.39,7.69,1111122 
DISL,ioos:station:DISL:MBLA:1,2014-05-02T20:08:00Z,30.4367,-88.0117,1.959,7.77,1111122 
DISL,ioos:station:DISL:MBLA:1,2014-05-02T20:10:00Z,30.4367,-88.0117,1.46,7.82,1111122 
DISL,ioos:station:DISL:MBLA:1,2014-05-02T20:13:00Z,30.4367,-88.0117,0.899,7.45,1111122 
DISL,ioos:station:DISL:MBLA:1,2014-05-02T20:15:00Z,30.4367,-88.0117,0.549,7.61,1111122 
DISL,ioos:station:DISL:MBLA:1,2014-05-02T21:03:00Z,30.4367,-88.0117,2.952,7.82,1111122 
DISL,ioos:station:DISL:MBLA:1,2014-05-02T21:05:00Z,30.4367,-88.0117,2.431,7.83,1111122 
DISL,ioos:station:DISL:MBLA:1,2014-05-02T21:08:00Z,30.4367,-88.0117,1.956,7.92,1111122 
DISL,ioos:station:DISL:MBLA:1,2014-05-02T21:10:00Z,30.4367,-88.0117,1.473,7.7,1111122 
DISL,ioos:station:DISL:MBLA:1,2014-05-02T21:13:00Z,30.4367,-88.0117,0.921,7.47,1111122 
DISL,ioos:station:DISL:MBLA:1,2014-05-02T21:15:00Z,30.4367,-88.0117,0.417,8.09,1111122 
DISL,ioos:station:DISL:MBLA:1,2014-05-02T22:02:00Z,30.4367,-88.0117,3.045,7.88,1111122 
DISL,ioos:station:DISL:MBLA:1,2014-05-02T22:05:00Z,30.4367,-88.0117,2.554,7.81,1111122 
DISL,ioos:station:DISL:MBLA:1,2014-05-02T22:08:00Z,30.4367,-88.0117,1.949,7.82,1111122 
DISL,ioos:station:DISL:MBLA:1,2014-05-02T22:10:00Z,30.4367,-88.0117,1.483,7.87,1111122 